Location: Asheville, NC
(35.6000°N, 82.5500°W)
Time: 10:30:01
(UTC-04:00)

UWE-3 - Pass Details

Date: 07 January 2018
Orbit: 585 x 685 km, 97.6° (Epoch: 18 October)

Event Time Altitude Azimuth Distance (km) Brightness Sun altitude
Rises 20:43:48 0° 216° (SW) 2,820 ? -38.1°
Reaches altitude 10° 20:47:32 10° 251° (WSW) 1,945 ? -38.8°
Maximum altitude 20:48:50 11° 269° (W) 1,874 ? -39.1°
Drops below altitude 10° 20:50:09 10° 287° (WNW) 1,966 ? -39.4°
Sets 20:54:00 0° 322° (NW) 2,905 ? -40.1°
